Location: Avocado Heights
(34.0361°N, 117.9912°W)
Time: 06:34:38
(UTC+00:00)

Daily predictions for brighter satellites

Satellite Brightness Start Highest point End
(mag) Time Altitude Azimuth Time Altitude Azimuth Time Altitude Azimuth
Cosmos 2278 Rocket 2.3 12:07:17 63° S 12:07:17 63° S 12:11:58 10° SSE
Cosmos 1943 Rocket 2.6 12:09:39 49° S 12:09:39 49° S 12:13:39 10° SSE
Cosmos 407 Rocket 3.6 12:13:58 63° S 12:13:58 63° S 12:18:14 10° SSE
USA 229 DEB 3.8 12:11:09 18° S 12:15:25 59° ESE 12:21:31 10° NE
USA 229 3.8 12:11:16 17° S 12:15:38 59° ESE 12:21:43 10° NE
Cosmos 2016 Rocket 3.9 12:11:20 10° N 12:17:43 87° E 12:23:59 10° S
Cosmos 1782 Rocket 3.8 12:19:09 60° NE 12:19:36 64° E 12:23:52 10° SSE
Cosmos 1371 Rocket 3.9 12:21:33 38° SSW 12:23:39 87° WNW 12:28:59 10° NNE
IRS-1D 4.4 12:19:46 10° NNE 12:24:30 46° E 12:29:13 10° S
Iridium 4 Rocket 3.0 12:27:18 67° SSE 12:27:18 67° SSE 12:30:58 10° S
Cosmos 1300 Rocket 3.6 12:28:07 66° S 12:28:07 66° S 12:31:48 10° S
USA 267 3.6 12:21:41 10° NNE 12:27:44 42° NW 12:28:15 42° NW
FengYun 1-2 T 4.3 12:27:28 10° NNE 12:33:05 81° ESE 12:38:43 10° S
ATLAS 3B R/B 2.9 12:28:45 10° SSW 12:36:04 89° ESE 12:43:54 10° NNE
CZ-4 R/B 4.4 12:33:47 10° NNE 12:38:30 57° E 12:43:06 10° S
Delta 142 4.2 12:39:23 36° SSW 12:39:59 38° S 12:43:46 10° ESE
Cosmos 2242 Rocket 3.6 12:40:38 10° S 12:44:59 80° E 12:49:24 10° N
OAO 1 4.4 12:45:04 41° WSW 12:47:03 86° S 12:52:32 10° E
NOAA 12 4.3 12:47:51 10° NNE 12:53:11 75° ESE 12:58:28 10° S
Cosmos 1656 Rocket 4.2 12:48:04 10° NNW 12:53:41 59° ENE 12:59:14 10° SSE
In-Cosmos 22 Rocket 4.2 12:49:39 10° S 12:55:28 88° W 13:01:18 10° N
Cosmos 1624 Rocket 4.3 12:55:24 28° WSW 12:57:24 39° WNW 13:02:15 10° N
USA 234 4.2 12:54:05 10° ESE 13:00:09 42° NE 13:06:13 10° NNW
Cosmos 2251 Rocket 3.6 12:59:20 18° NNW 13:03:14 54° WSW 13:08:26 10° S
SL-16 R/B 4.4 13:02:04 10° SW 13:02:40 12° SW 13:02:40 12° SW
SL-16 R/B 2.4 13:00:37 10° SW 13:06:03 47° WNW 13:11:32 10° N
Cosmos 2061 Rocket 4.1 13:05:15 10° NNW 13:11:13 52° W 13:17:10 10° SSW
Cosmos 1452 Rocket 3.8 13:08:04 10° S 13:13:14 70° ESE 13:18:27 10° NNE
Cosmos 2233 Rocket 4.4 13:14:09 10° NNW 13:19:53 38° W 13:25:33 10° SSW
Aureole 3 Rocket 4.2 13:17:04 10° N 13:22:55 80° W 13:31:02 10° S
Cosmos 1331 Rocket 4.0 13:21:29 10° SSW 13:26:41 65° WNW 13:31:54 10° N
Hubble Space Telescope 3.5 13:27:39 10° S 13:28:44 11° SSE 13:29:49 10° SE
SKYMED 2 3.6 13:28:05 10° S 13:32:20 57° W 13:36:37 10° NNW
Cosmos 1464 Rocket 4.3 13:26:23 10° N 13:32:30 69° E 13:38:34 10° SSE
COSMO-SKYMED 1 2.4 13:29:18 10° S 13:33:24 82° WSW 13:37:31 10° NNW
Okean 2 Rocket 3.9 13:29:27 10° N 13:33:44 54° E 13:38:01 10° SSE
SJ 16-02 1.9 13:31:42 10° NW 13:35:35 35° W 13:39:28 10° SSW
Meteor 1-11 4.3 13:36:32 10° SSW 13:42:21 69° W 13:48:12 10° N
Cosmos 676 Rocket 4.3 13:38:36 10° NNW 13:43:32 44° WSW 13:48:24 10° S
Cosmos 1025 Rocket 3.0 13:40:10 10° SSW 13:44:29 69° W 13:48:49 10° N
CBERS-1 4.1 13:43:28 10° NNE 13:48:36 89° ESE 13:53:41 10° SSW
Cosmos 1674 Rocket 4.0 13:46:35 10° SSW 13:50:42 39° W 13:54:52 10° N
Cosmos 1484 Rocket 2.8 13:48:50 10° N 13:52:13 45° WNW 13:55:34 10° SSW
Cosmos 1400 Rocket 2.7 13:51:21 10° NNW 13:54:55 51° W 13:58:26 10° S
Helios 1A Rocket 3.4 13:52:09 10° SSW 13:55:03 27° W 13:57:59 10° NW
Cosmos 1943 3.3 13:51:06 10° SW 13:56:33 51° WNW 14:02:00 10° N
Cosmos 2297 3.7 13:51:42 10° NNW 13:57:21 81° WSW 14:02:56 10° SSE
Cosmos 1603 4.0 13:54:12 10° SSW 13:59:55 78° ESE 14:05:40 10° NNE
Cosmos 2369 Rocket 2.2 13:56:27 10° NNW 14:02:07 71° WSW 14:07:46 10° S
